OPS 4682 DEB, 38415

Orbit data source: Space-Track

OPS 4682 DEB, 38415 is space debris in LEO originally from a launch on Sat, 03 Apr 1965 UTC launched from the Air Force Western Test Range (AFWTR). Debris objects in space refer to the collection of defunct objects orbiting the Earth. Examples of debris include non-operational satellites, rocket bodies, and fragments generated from explosions, collisions, or faulty payload assembly.

Loading next visibility...
Identifier
38415, 1965-027DU
Orbit
LEO
Country
Flag of USUS
Related business
Manufacturer
Unknown
Mission
Spacecraft
Bus & Motor
Unknown
Mass
Unknown
Launch date (UTC)
1965-04-03 (61 years ago)
Launch vehicle
Unknown
Launch site
Air Force Western Test Range (AFWTR)
Object type
Payload
Rocket body
Debris
Shape & HBR
Unknown shape, 0.1 m
Radar Cross Section
Medium (>0.1 m² and <1 m²)

Expand to show TLE details & history
Last TLE update: 11 hours ago

TLE from 11 hours ago
0 OPS 4682 DEB
1 38415U 65027DU  26264.28822112  .00000566  00000-0  17906-2 0  9999
2 38415  90.2535  16.7451 0030363 213.1054 146.8170 13.02444726627445
Epoch: 2026-09-21T06:55Z
TLE epoch observation values (Epoch: 2026-09-21T06:55:02.304Z)
Latitude
-0.00002°
Longitude
-87.1847°
Altitude
1,274.826 km
Speed
7.209 km/s
True Right ascension
01h 06m 58s
True Declination
0° 00' 00"
Sunlit
Object was in full shadow at epoch
Visualization orbit readout
Latitude
Unknown
Longitude
Unknown
Altitude
Unknown
Speed
Unknown
Apparent Right ascension
Unknown
Apparent Declination
Unknown
Sunlit
N/A
Visualization observer readout
Local Sidereal Time
10:57:22
Azimuth
Unknown
Elevation
Unknown
Doppler factor
Unknown
Orbital elements
Apogee altitude
1,272.807 km
Perigee altitude
1,226.486 km
Semi-major axis
7,627.783 km
Eccentricity
0.00304
Inclination
90.2535°
RAAN
16.7451°
Arg. of periapsis
213.1054°
True anomaly
147.00683°
Mean anomaly
146.817°
Eccentric anomaly
146.91197°
Mean motion
3.25796 °/min
Orbital period
110.5 mins
BSTAR
0.0017906
Loading maneuver chart data...
Computing Atmospheric mass density...
Loading historical data...
Loading historical data...
Loading historical data...
Loading historical data...
Loading historical data...
Loading historical data...
Loading historical data...

Documentation

Showing up to 5 results
|